Weather in Sukhtelinskiy

Russia / Chelyabinsk Oblast     53°56′50″N   60°04′48″E
temp.,
°C
wind,
m/s
gust,
m/s
humid.,
%
clouds,
%
prec.,
mm/h
press.,
hPa
HPBL,
m
4 december, sat
sat423:00−2sw7158531 0.0 1017354
02:000sw7138987 0.0 1018350
05:00+1sw61197100 0.0 1020383
08:00+1ssw61197100 0.0 1021345
11:00+1sw71494100 0.0 1021448
14:00+2sw71588100 0.0 1020668
17:00+1sw8168774 0.0 1020547
20:00+1sw8178213 0.0 1019588
5 december, sun
sun523:000sw9188599 0.0 1018567
02:00−1sw91883100 0.0 1016611
05:00−1ssw81782100 0.0 1016596
08:00−1ssw81683100 0.0 1014585
11:000ssw71584100 0.0 1014658
14:00+1sw71284100 0.0 1014551
17:000sw51086100 0.0 1015292
20:00−2wsw41088100 0.0 1016212
6 december, mon
mon623:00−3w2492100 0.0 101775
02:00−4nw0194100 0.0 101818
05:00−4nne1296100 0.0 101855
08:00−3ne1297100 0.1 1018118
11:00−3ene349499 0.3 1020284
14:00−3ene119196 0.2 1021234
17:00−5wnw019693 0.3 102312
20:00−6ne239694 0.1 102582
7 december, tue
tue723:00−8e129499 0.2 102760
02:00−9ese129596 0.1 102950
05:00−11sse119692 0.1 103115
08:00−11s019699 0.0 103211
11:00−10sw019277 0.1 103454
14:00−9wnw018977 0.0 1034113
17:00−11s009622 0.0 10359
20:00−12wsw019742 0.0 10379
8 december, wed
wed823:00−13sw119747 0.0 103711
02:00−13ssw119755 0.0 103810
05:00−12ssw229681 0.0 103839
08:00−12sw229651 0.0 103840
11:00−10ssw379291 0.0 1038197
14:00−8ssw4988100 0.0 1037279
17:00−8ssw41093100 0.0 1036244
20:00−6ssw51293100 0.0 1036295